Date String (YYYY-MM-DD hh:mm:ss) UTC,Instrument flags,Ambient pressure (hPa),Sample flow (lpm),Bypass flow (lpm),Sample temperature (°C),Ambient temperature (°C),ASC tube jacket temperature (°C),LED temperature (°C),Box temperature (°C),Sample RH (%),Span deviation,Mass concentration (μg/m³),Mass concentration (μg/m³),Mass concentration (μg/m³)
DateTimeUTC,F1_M11,P_M11,Q1_M11,Q2_M11,T1_M11,T2_M11,T3_M11,T4_M11,T5_M11,U1_M11,ZSPAN_M11,X0_M11,X2_M11,X1_M11
2021-11-19 03:00:00,,0827.1,5.00,0.00,23.8,23.0,00.0,32.9,25.5,08.4,0003.9,0027.50,0008.73,0006.48
2021-11-19 03:01:00,,0826.9,5.00,0.00,23.8,23.0,00.0,32.9,25.5,08.4,0003.9,0028.74,0008.77,0006.48
2021-11-19 03:02:00,,0827.0,5.00,0.00,23.8,23.0,00.0,32.9,25.5,08.4,0004.0,0030.29,0008.82,0006.46
2021-11-19 03:03:00,,0827.2,5.01,0.00,23.8,23.0,00.0,32.8,25.5,08.4,0003.1,0030.96,0008.81,0006.41
2021-11-19 03:04:00,,0827.2,5.00,0.00,23.8,23.0,00.0,32.8,25.5,08.4,0000.0,0031.32,0008.82,0006.37
2021-11-19 03:05:00,,0827.2,5.00,0.00,23.8,23.0,00.0,32.8,25.5,08.5,0000.0,0031.20,0008.80,0006.36
2021-11-19 03:06:00,,0827.1,4.99,0.00,23.8,22.9,00.0,32.8,25.5,08.5,0000.0,0033.06,0008.84,0006.37
2021-11-19 03:07:00,,0827.0,5.01,0.00,23.8,22.9,00.0,32.8,25.5,08.5,0000.0,0031.96,0008.82,0006.34
2021-11-19 03:08:00,,0826.8,4.99,0.00,23.7,22.9,00.0,32.8,25.5,08.5,0000.0,0031.40,0008.89,0006.35
2021-11-19 03:09:00,,0827.0,5.01,0.00,23.7,22.9,00.0,32.8,25.5,08.5,0000.0,0031.64,0008.87,0006.35
2021-11-19 03:10:00,,0827.1,5.01,0.00,23.7,22.9,00.0,32.8,25.5,08.5,0000.0,0032.11,0008.87,0006.36
2021-11-19 03:11:00,,0827.2,5.00,0.00,23.7,22.9,00.0,32.8,25.5,08.5,0000.0,0032.15,0008.89,0006.37
2021-11-19 03:12:00,,0827.0,4.99,0.00,23.7,22.9,00.0,32.8,25.5,08.4,0000.0,0032.44,0008.88,0006.38
2021-11-19 03:13:00,,0827.0,5.01,0.00,23.7,22.9,00.0,32.8,25.5,08.5,0000.0,0033.11,0008.84,0006.39
2021-11-19 03:14:00,,0827.1,5.00,0.00,23.7,22.9,00.0,32.8,25.5,08.5,0001.6,0032.53,0008.83,0006.40
2021-11-19 03:15:00,,0826.9,5.00,0.00,23.7,22.9,00.0,32.8,25.5,08.4,0003.6,0032.40,0008.72,0006.42
2021-11-19 03:16:00,,0826.9,4.99,0.00,23.7,22.9,00.0,32.8,25.5,08.4,0004.0,0032.57,0008.81,0006.42
2021-11-19 03:17:00,,0826.9,4.99,0.00,23.7,22.9,00.0,32.8,25.5,08.4,0004.1,0032.77,0008.83,0006.41
2021-11-19 03:18:00,,0826.9,5.01,0.00,23.7,22.9,00.0,32.8,25.5,08.4,0004.0,0034.26,0008.82,0006.42
2021-11-19 03:19:00,,0826.8,4.99,0.00,23.7,22.9,00.0,32.8,25.5,08.4,0004.2,0035.38,0008.75,0006.41
2021-11-19 03:20:00,,0826.9,5.01,0.00,23.7,22.9,00.0,32.8,25.5,08.4,0004.0,0036.85,0008.76,0006.39
2021-11-19 03:21:00,,0827.0,5.01,0.00,23.7,22.9,00.0,32.8,25.5,08.4,0003.8,0035.92,0008.72,0006.38
2021-11-19 03:22:00,,0827.0,5.00,0.00,23.7,22.8,00.0,32.7,25.4,08.5,0002.9,0035.33,0008.67,0006.37
2021-11-19 03:23:00,,0827.0,4.99,0.00,23.6,22.8,00.0,32.7,25.4,08.5,0002.9,0035.12,0008.66,0006.36
2021-11-19 03:24:00,,0826.9,5.00,0.00,23.6,22.8,00.0,32.7,25.4,08.5,0003.0,0033.57,0008.72,0006.33
2021-11-19 03:25:00,,0826.9,4.98,0.00,23.6,22.8,00.0,32.7,25.4,08.5,0003.1,0035.04,0008.79,0006.30
2021-11-19 03:26:00,,0826.7,5.01,0.00,23.6,22.8,00.0,32.7,25.4,08.4,0000.9,0035.12,0008.83,0006.28
2021-11-19 03:27:00,,0826.8,5.01,0.00,23.6,22.8,00.0,32.7,25.3,08.5,0002.7,0034.56,0008.78,0006.27
2021-11-19 03:28:00,,0827.3,4.99,0.00,23.6,22.7,00.0,32.7,25.3,08.5,0001.8,0032.47,0008.72,0006.25
2021-11-19 03:29:00,,0827.0,5.01,0.00,23.5,22.7,00.0,32.7,25.2,08.6,0002.7,0030.40,0008.73,0006.22
2021-11-19 03:30:00,,0827.1,5.00,0.00,23.5,22.7,00.0,32.6,25.2,08.6,0003.7,0029.73,0008.68,0006.19
2021-11-19 03:31:00,,0826.9,4.99,0.00,23.5,22.7,00.0,32.6,25.2,08.6,0003.8,0028.00,0008.60,0006.17
2021-11-19 03:32:00,,0826.9,4.99,0.00,23.5,22.7,00.0,32.6,25.3,08.6,0003.5,0028.32,0008.55,0006.13
2021-11-19 03:33:00,,0826.9,5.01,0.00,23.5,22.7,00.0,32.6,25.3,08.6,0004.2,0028.56,0008.52,0006.10
2021-11-19 03:34:00,,0827.0,5.00,0.00,23.5,22.7,00.0,32.6,25.3,08.6,0004.6,0028.45,0008.47,0006.07
2021-11-19 03:35:00,,0826.9,5.00,0.00,23.5,22.7,00.0,32.6,25.3,08.6,0004.7,0028.33,0008.35,0006.04
2021-11-19 03:36:00,,0826.9,4.99,0.00,23.5,22.7,00.0,32.6,25.3,08.6,0004.5,0027.23,0008.29,0006.02
2021-11-19 03:37:00,,0827.0,5.02,0.00,23.5,22.7,00.0,32.6,25.3,08.6,0004.6,0026.96,0008.27,0006.00
2021-11-19 03:38:00,,0826.9,4.99,0.00,23.5,22.7,00.0,32.6,25.3,08.6,0004.5,0026.84,0008.23,0005.98
2021-11-19 03:39:00,,0827.1,5.00,0.00,23.5,22.7,00.0,32.6,25.3,08.6,0004.0,0026.66,0008.24,0005.96
2021-11-19 03:40:00,,0826.8,4.99,0.00,23.5,22.7,00.0,32.6,25.2,08.6,0003.1,0026.56,0008.21,0005.95
2021-11-19 03:41:00,,0826.7,5.01,0.00,23.5,22.7,00.0,32.6,25.2,08.6,0002.3,0025.92,0008.21,0005.93
2021-11-19 03:42:00,,0826.9,5.00,0.00,23.5,22.7,00.0,32.5,25.2,08.6,0001.6,0024.99,0008.20,0005.91
2021-11-19 03:43:00,,0826.9,5.01,0.00,23.5,22.6,00.0,32.5,25.2,08.6,0000.0,0024.30,0008.21,0005.91
2021-11-19 03:44:00,,0826.9,4.99,0.00,23.4,22.6,00.0,32.5,25.1,08.6,0000.0,0023.31,0008.22,0005.90
2021-11-19 03:45:00,,0827.0,5.00,0.00,23.4,22.6,00.0,32.5,25.1,08.6,0000.0,0022.48,0008.20,0005.90
2021-11-19 03:46:00,,0826.9,5.00,0.00,23.3,22.5,00.0,32.5,25.0,08.7,0000.0,0022.15,0008.17,0005.90
2021-11-19 03:47:00,,0827.0,5.00,0.00,23.3,22.4,00.0,32.5,24.9,08.7,0000.0,0022.40,0008.22,0005.91
2021-11-19 03:48:00,,0826.9,4.99,0.00,23.3,22.4,00.0,32.4,24.9,08.7,0000.0,0023.25,0008.24,0005.92
2021-11-19 03:49:00,,0826.8,5.00,0.00,23.2,22.4,00.0,32.4,24.9,08.7,0000.0,0022.55,0008.24,0005.93
2021-11-19 03:50:00,,0826.7,4.99,0.00,23.2,22.3,00.0,32.4,24.9,08.7,0000.0,0023.37,0008.22,0005.92
2021-11-19 03:51:00,,0826.5,5.01,0.00,23.1,22.2,00.0,32.4,24.8,08.7,0000.0,0024.06,0008.16,0005.89
2021-11-19 03:52:00,,0826.7,4.99,0.00,23.1,22.2,00.0,32.3,24.8,08.7,0000.0,0024.15,0008.12,0005.89
2021-11-19 03:53:00,,0826.7,5.00,0.00,23.1,22.2,00.0,32.3,24.7,08.7,0000.6,0025.27,0008.05,0005.88
2021-11-19 03:54:00,,0826.7,5.01,0.00,23.1,22.2,00.0,32.3,24.7,08.8,0001.5,0025.25,0007.96,0005.86
2021-11-19 03:55:00,,0826.6,5.00,0.00,23.1,22.3,00.0,32.3,24.8,08.7,0000.0,0027.34,0007.92,0005.84
2021-11-19 03:56:00,,0826.7,5.00,0.00,23.1,22.3,00.0,32.3,24.8,08.6,0001.0,0028.35,0007.97,0005.83
2021-11-19 03:57:00,,0826.8,5.00,0.00,23.1,22.3,00.0,32.2,24.8,08.5,0001.5,0028.20,0007.95,0005.82
2021-11-19 03:58:00,,0826.7,4.99,0.00,23.0,22.2,00.0,32.2,24.7,08.7,0000.0,0027.24,0007.84,0005.81
2021-11-19 03:59:00,,0827.0,5.00,0.00,23.0,22.2,00.0,32.2,24.7,08.7,0000.0,0025.68,0007.76,0005.80
